Temp
-13 -13 -13 -14 -15 -13 -13 -13 -12 -12 -11 -10 -10 -9 -10 -9 -9 -10 -10 -10 -10 -10 -10 -10 -11 -11 -11 -11 -11 -11 -11 -11 -11 -11 -11 -11 -11 -11 -11 -11 -11 -11 -12 -12
-13 -13 -14 -13 -14 -14 -13 -13 -13 -13 -11 -11 -10 -10 -10 -10 -9 -10 -11 -11 -10 -10 -10 -11 -11 -11 -11 -11 -11 -11 -11 -11 -11 -11 -11 -11 -11 -11 -11 -11 -11 -11 -12 -12
-13 -14 -14 -13 -14 -14 -14 -14 -14 -14 -12 -11 -10 -10 -10 -10 -10 -10 -11 -11 -11 -11 -11 -11 -11 -11 -11 -11 -11 -11 -11 -11 -11 -11 -11 -11 -11 -11 -12 -12 -11 -12 -12 -13
-14 -14 -14 -14 -14 -14 -14 -15 -15 -14 -14 -12 -12 -10 -10 -11 -11 -11 -11 -11 -11 -11 -11 -12 -11 -11 -11 -11 -11 -11 -11 -12 -12 -11 -11 -12 -12 -12 -12 -12 -12 -12 -13 -13
-15 -15 -15 -14 -15 -15 -15 -15 -15 -14 -14 -13 -13 -12 -10 -11 -11 -11 -12 -12 -12 -12 -12 -12 -12 -12 -11 -11 -11 -11 -11 -11 -11 -11 -12 -12 -12 -12 -12 -12 -13 -13 -13 -14
-15 -15 -15 -15 -15 -15 -15 -15 -15 -15 -15 -13 -13 -13 -11 -12 -12 -12 -12 -12 -12 -12 -12 -12 -12 -12 -12 -12 -12 -12 -12 -12 -11 -11 -12 -12 -12 -12 -12 -12 -13 -13 -14 -14
-15 -15 -15 -15 -16 -16 -16 -16 -16 -15 -15 -14 -13 -14 -12 -13 -13 -13 -13 -13 -13 -13 -12 -12 -12 -12 -12 -13 -13 -13 -12 -12 -11 -12 -12 -12 -13 -13 -13 -13 -13 -14 -14 -14
-15 -15 -16 -16 -16 -17 -17 -16 -16 -16 -15 -15 -15 -14 -14 -14 -14 -13 -13 -13 -13 -13 -13 -13 -13 -13 -13 -13 -14 -13 -13 -12 -12 -13 -13 -13 -13 -13 -14 -14 -14 -14 -15 -15
-16 -16 -16 -16 -17 -17 -16 -16 -16 -16 -16 -15 -15 -15 -15 -14 -14 -14 -14 -14 -14 -14 -14 -14 -14 -14 -14 -14 -13 -13 -13 -13 -13 -13 -13 -13 -14 -14 -14 -15 -15 -15 -15 -15
-16 -17 -17 -17 -17 -17 -17 -17 -17 -16 -16 -16 -15 -15 -15 -15 -15 -14 -15 -15 -14 -14 -14 -14 -15 -15 -14 -14 -14 -13 -14 -14 -14 -14 -14 -14 -14 -15 -15 -16 -16 -16 -16 -16
-16 -17 -17 -17 -16 -17 -18 -17 -17 -17 -17 -16 -16 -15 -15 -15 -15 -15 -15 -15 -15 -15 -15 -15 -15 -15 -15 -14 -14 -15 -15 -15 -15 -15 -15 -15 -16 -16 -16 -16 -16 -17 -17 -17
-17 -17 -17 -17 -18 -18 -18 -18 -18 -18 -17 -17 -17 -16 -16 -16 -15 -16 -16 -16 -16 -16 -16 -16 -15 -15 -15 -15 -15 -15 -15 -15 -15 -15 -16 -17 -17 -17 -17 -17 -17 -17 -17 -17
-17 -17 -16 -17 -17 -17 -17 -18 -19 -18 -18 -17 -18 -16 -17 -16 -16 -17 -17 -17 -17 -17 -17 -16 -16 -16 -16 -16 -16 -16 -16 -16 -16 -17 -17 -17 -17 -17 -17 -17 -17 -18 -18 -18
-18 -17 -17 -17 -18 -19 -18 -18 -19 -19 -18 -17 -17 -17 -18 -18 -18 -18 -18 -18 -17 -17 -17 -17 -17 -18 -18 -18 -18 -18 -18 -18 -18 -17 -17 -17 -17 -18 -18 -18 -18 -18 -18 -19
-18 -18 -19 -19 -18 -18 -18 -18 -18 -18 -18 -18 -17 -18 -18 -18 -19 -19 -18 -18 -18 -17 -18 -18 -19 -19 -19 -18 -18 -18 -18 -18 -18 -18 -18 -18 -18 -18 -18 -19 -19 -19 -19 -19
-20 -19 -19 -19 -19 -18 -18 -18 -18 -17 -18 -17 -18 -17 -18 -19 -20 -19 -20 -19 -19 -20 -20 -19 -19 -19 -19 -19 -19 -19 -19 -19 -19 -19 -19 -19 -19 -19 -19 -19 -19 -19 -20 -20
-20 -20 -20 -19 -19 -19 -18 -17 -18 -18 -18 -19 -19 -19 -20 -20 -20 -20 -20 -20 -20 -20 -20 -20 -20 -20 -20 -20 -20 -20 -19 -19 -19 -19 -19 -19 -19 -19 -19 -19 -19 -20 -20 -21
-20 -20 -20 -19 -19 -18 -18 -19 -19 -19 -19 -20 -19 -20 -21 -21 -21 -20 -21 -21 -21 -21 -21 -20 -20 -21 -21 -21 -20 -20 -20 -20 -19 -19 -19 -19 -19 -19 -19 -19 -20 -20 -21 -21
-21 -21 -21 -21 -20 -19 -19 -18 -20 -20 -20 -20 -20 -21 -22 -22 -21 -21 -22 -21 -21 -21 -21 -21 -21 -21 -21 -21 -21 -21 -20 -20 -20 -19 -19 -19 -20 -20 -20 -20 -20 -21 -21 -23
-21 -21 -21 -21 -21 -20 -19 -20 -21 -21 -19 -21 -22 -22 -22 -22 -21 -22 -22 -22 -21 -22 -22 -23 -22 -22 -22 -22 -21 -21 -21 -20 -20 -20 -20 -20 -20 -20 -20 -20 -21 -22 -23 -24
-21 -22 -22 -22 -22 -20 -20 -21 -21 -20 -21 -22 -22 -22 -22 -22 -22 -22 -22 -22 -23 -23 -22 -22 -22 -22 -22 -21 -21 -21 -20 -20 -20 -20 -20 -20 -21 -21 -21 -22 -23 -24 -25 -25
-22 -22 -22 -22 -22 -20 -20 -21 -21 -22 -21 -21 -22 -22 -22 -22 -22 -22 -22 -22 -22 -22 -22 -22 -22 -21 -21 -22 -21 -21 -21 -21 -21 -21 -21 -21 -22 -23 -24 -24 -24 -25 -25 -25
-22 -22 -22 -22 -21 -21 -20 -20 -21 -22 -22 -22 -22 -22 -22 -22 -21 -22 -22 -22 -23 -23 -23 -22 -21 -21 -21 -21 -22 -22 -21 -21 -22 -22 -23 -24 -25 -25 -25 -25 -25 -25 -25 -25
-23 -23 -23 -23 -21 -21 -22 -22 -22 -22 -23 -23 -22 -22 -22 -22 -22 -22 -22 -23 -23 -23 -24 -23 -22 -23 -23 -23 -23 -23 -23 -23 -23 -24 -25 -25 -25 -25 -25 -25 -24 -24 -25 -25
-23 -23 -22 -22 -22 -22 -23 -23 -24 -24 -23 -23 -23 -23 -23 -24 -24 -24 -24 -24 -24 -24 -24 -24 -24 -24 -24 -24 -24 -24 -24 -25 -25 -25 -25 -25 -25 -25 -25 -25 -25 -25 -26 -26
-23 -23 -23 -23 -24 -24 -24 -24 -24 -24 -24 -24 -24 -25 -25 -25 -25 -25 -24 -25 -24 -24 -25 -25 -25 -25 -25 -26 -26 -26 -26 -26 -25 -25 -25 -25 -24 -25 -25 -25 -25 -26 -26 -26
Height
5753 5758 5765 5767 5770 5772 5776 5779 5784 5789 5790 5792 5794 5799 5804 5806 5809 5812 5815 5816 5815 5815 5820 5822 5823 5824 5824 5824 5824 5825 5824 5823 5821 5818 5817 5815 5814 5811 5808 5805 5802 5797 5794 5790
5746 5752 5756 5758 5760 5765 5769 5772 5776 5779 5782 5784 5786 5791 5796 5798 5801 5803 5805 5806 5808 5809 5813 5815 5815 5816 5816 5816 5816 5816 5815 5814 5811 5810 5809 5807 5803 5800 5797 5794 5789 5786 5782 5779
5736 5742 5746 5750 5754 5757 5761 5764 5766 5768 5772 5773 5777 5782 5786 5790 5792 5794 5796 5798 5799 5803 5805 5806 5807 5807 5807 5807 5807 5807 5805 5804 5802 5801 5800 5796 5793 5790 5786 5782 5778 5774 5771 5768
5726 5732 5738 5742 5746 5749 5752 5756 5757 5760 5763 5765 5768 5771 5778 5781 5783 5786 5788 5790 5791 5793 5794 5796 5798 5798 5799 5799 5798 5798 5796 5795 5793 5791 5789 5786 5782 5779 5774 5770 5766 5763 5760 5758
5720 5724 5730 5734 5740 5740 5744 5747 5748 5749 5752 5756 5760 5761 5771 5772 5776 5776 5778 5781 5783 5784 5785 5786 5787 5788 5789 5789 5788 5787 5786 5784 5783 5780 5777 5774 5770 5766 5763 5759 5755 5752 5750 5748
5707 5714 5719 5725 5729 5732 5735 5739 5742 5742 5744 5745 5751 5754 5754 5766 5767 5768 5770 5772 5773 5774 5775 5776 5777 5778 5778 5778 5777 5776 5776 5773 5771 5768 5765 5762 5759 5755 5752 5749 5745 5742 5739 5736
5700 5705 5711 5716 5719 5723 5727 5732 5735 5737 5736 5737 5742 5748 5749 5752 5757 5759 5760 5762 5763 5764 5765 5766 5767 5767 5767 5767 5766 5766 5764 5762 5759 5756 5753 5750 5747 5744 5740 5737 5734 5731 5728 5725
5689 5695 5701 5708 5713 5718 5722 5724 5725 5725 5726 5729 5730 5735 5740 5741 5747 5749 5750 5751 5752 5753 5754 5754 5756 5756 5756 5755 5754 5753 5752 5748 5746 5743 5741 5737 5734 5731 5728 5725 5722 5719 5716 5713
5682 5685 5690 5695 5700 5706 5710 5711 5718 5719 5719 5720 5721 5725 5732 5733 5735 5739 5739 5739 5741 5741 5743 5745 5746 5745 5745 5744 5742 5740 5737 5735 5733 5730 5728 5725 5722 5719 5715 5712 5710 5708 5705 5701
5672 5675 5680 5685 5689 5692 5696 5703 5706 5707 5709 5711 5714 5717 5721 5725 5726 5727 5727 5727 5729 5731 5732 5733 5734 5734 5733 5731 5728 5726 5724 5722 5720 5717 5714 5712 5709 5707 5703 5701 5699 5696 5692 5689
5662 5667 5672 5675 5678 5683 5689 5692 5698 5701 5703 5703 5705 5707 5711 5713 5716 5715 5713 5717 5719 5720 5721 5721 5721 5721 5719 5717 5715 5714 5712 5710 5707 5704 5702 5700 5697 5694 5691 5690 5687 5682 5679 5676
5655 5658 5662 5667 5671 5674 5677 5682 5685 5687 5691 5694 5696 5699 5700 5703 5703 5703 5703 5704 5706 5706 5707 5708 5708 5706 5705 5705 5703 5701 5699 5697 5695 5692 5690 5688 5686 5683 5680 5676 5674 5670 5666 5662
5647 5650 5653 5657 5660 5661 5663 5669 5674 5678 5682 5686 5688 5690 5690 5690 5692 5692 5693 5693 5691 5692 5692 5694 5694 5693 5691 5691 5691 5689 5686 5684 5682 5680 5677 5675 5673 5670 5667 5664 5660 5656 5652 5649
5638 5641 5644 5649 5652 5655 5659 5663 5667 5668 5670 5675 5677 5679 5679 5680 5680 5678 5680 5680 5679 5679 5680 5680 5679 5679 5679 5677 5676 5674 5672 5670 5669 5667 5665 5662 5659 5656 5653 5649 5646 5641 5638 5634
5631 5636 5637 5639 5642 5645 5648 5651 5655 5656 5661 5661 5668 5667 5669 5668 5667 5666 5664 5664 5665 5667 5668 5668 5668 5667 5665 5664 5662 5661 5660 5658 5656 5654 5652 5649 5646 5643 5639 5635 5632 5628 5625 5620
5627 5629 5630 5632 5635 5636 5639 5642 5645 5647 5648 5651 5653 5658 5661 5659 5654 5653 5654 5653 5655 5656 5656 5656 5655 5654 5652 5651 5650 5649 5647 5645 5643 5641 5638 5636 5632 5628 5624 5620 5617 5613 5608 5604
5618 5621 5623 5625 5628 5631 5632 5635 5637 5641 5642 5644 5643 5649 5645 5645 5644 5644 5644 5646 5646 5645 5645 5645 5644 5643 5640 5638 5637 5634 5632 5631 5629 5626 5623 5620 5617 5614 5610 5607 5603 5598 5593 5588
5611 5613 5615 5617 5619 5621 5628 5629 5630 5631 5633 5633 5635 5636 5635 5634 5633 5633 5634 5634 5634 5633 5632 5631 5630 5629 5627 5625 5624 5621 5619 5618 5615 5612 5609 5606 5602 5598 5595 5591 5586 5582 5577 5573
5604 5605 5607 5610 5613 5618 5619 5621 5621 5621 5624 5626 5627 5628 5626 5622 5623 5627 5623 5622 5622 5621 5620 5618 5616 5614 5613 5612 5610 5608 5605 5603 5600 5596 5593 5589 5586 5582 5578 5573 5569 5566 5561 5557
5595 5599 5602 5604 5605 5608 5613 5613 5613 5613 5616 5622 5616 5615 5616 5614 5614 5617 5611 5611 5610 5610 5609 5608 5605 5603 5600 5597 5595 5592 5589 5587 5584 5581 5578 5574 5570 5566 5562 5558 5553 5549 5544 5542
5587 5589 5592 5595 5596 5601 5604 5602 5603 5606 5617 5609 5607 5607 5606 5606 5605 5603 5601 5600 5600 5598 5596 5593 5591 5588 5585 5582 5579 5577 5573 5570 5568 5565 5561 5558 5553 5548 5544 5541 5537 5535 5532 5531
5579 5580 5584 5585 5588 5593 5596 5596 5595 5597 5596 5599 5598 5596 5596 5595 5593 5592 5589 5587 5586 5586 5584 5581 5578 5574 5571 5567 5563 5559 5557 5554 5551 5548 5544 5541 5537 5533 5530 5527 5525 5524 5523 5522
5568 5572 5574 5576 5581 5585 5584 5586 5585 5583 5583 5584 5584 5582 5580 5581 5581 5577 5576 5572 5570 5567 5564 5561 5558 5555 5551 5548 5545 5542 5539 5535 5533 5531 5528 5525 5522 5521 5518 5518 5517 5516 5514 5511
5557 5560 5561 5561 5575 5572 5571 5570 5569 5566 5567 5568 5569 5567 5563 5562 5560 5559 5554 5551 5549 5545 5542 5538 5535 5534 5530 5527 5524 5523 5520 5519 5518 5516 5515 5514 5513 5512 5510 5510 5508 5507 5505 5503
5547 5549 5551 5549 5558 5558 5557 5557 5557 5553 5554 5555 5549 5545 5543 5541 5540 5536 5533 5530 5526 5523 5517 5513 5510 5509 5507 5505 5504 5505 5505 5505 5505 5505 5505 5505 5504 5503 5502 5501 5501 5499 5497 5496
5539 5541 5538 5540 5545 5541 5544 5543 5542 5540 5538 5534 5529 5526 5526 5522 5520 5515 5511 5506 5499 5495 5490 5487 5484 5483 5482 5485 5488 5490 5492 5494 5495 5496 5495 5496 5496 5496 5496 5495 5493 5491 5489 5486
Wind_Speed
47 47 44 38 41 46 49 39 43 40 40 43 44 44 42 43 42 39 39 36 37 39 35 32 30 31 32 32 32 30 34 36 39 40 43 45 47 49 51 52 52 52 52 52
47 49 46 47 48 46 46 44 43 46 44 40 40 40 41 43 42 40 40 40 40 40 37 34 34 34 35 35 35 35 37 41 41 45 49 50 51 54 57 57 57 57 54 51
46 46 47 45 44 44 41 40 37 41 44 43 42 43 40 43 45 44 44 42 43 41 39 39 39 39 39 39 39 40 38 42 45 52 53 52 55 59 59 58 58 56 53 50
49 48 46 44 44 43 44 42 42 38 41 47 43 50 43 42 46 47 46 44 45 44 43 43 42 43 42 42 43 43 42 45 50 54 55 57 60 61 59 57 54 52 51 50
46 48 48 49 45 47 44 42 42 45 47 49 47 49 45 43 46 49 48 46 45 46 46 46 46 46 46 46 46 45 47 51 54 58 60 63 61 57 56 54 52 51 50 50
54 52 52 52 49 47 46 43 41 40 41 47 46 47 53 46 44 47 46 46 46 47 48 49 49 48 48 48 48 48 50 52 57 60 63 62 60 54 53 53 52 50 50 50
52 55 55 54 50 50 50 45 44 44 46 46 46 42 46 42 43 44 46 47 48 48 49 50 49 50 49 49 51 51 52 54 58 60 61 60 58 57 58 57 54 52 53 52
49 52 54 56 54 50 47 47 47 49 50 49 53 48 44 46 43 44 45 47 47 48 48 49 50 50 50 51 51 52 56 58 60 60 59 59 60 60 58 56 54 53 52 52
42 48 49 51 52 54 54 55 50 49 52 53 52 54 49 43 44 43 47 48 47 48 48 48 49 51 52 52 54 56 59 61 61 60 59 59 58 57 55 54 54 54 54 54
32 37 44 47 51 55 56 51 51 53 55 55 55 51 50 50 46 44 43 46 48 48 49 49 49 51 52 55 58 63 63 62 58 56 56 57 57 56 54 54 54 54 55 57
32 33 39 45 50 53 54 54 51 50 49 51 53 54 50 48 50 52 53 53 50 49 48 47 48 52 57 62 62 61 59 58 57 56 57 56 55 53 53 53 55 56 56 57
34 34 37 43 44 45 49 53 54 54 53 49 48 52 53 47 48 51 51 49 48 48 50 52 56 59 60 59 58 57 57 57 55 55 53 51 51 52 55 57 56 55 56 57
38 37 36 40 42 44 48 50 51 52 56 56 53 52 51 57 57 55 53 51 51 54 59 62 61 58 58 56 55 54 54 54 53 50 51 51 51 51 52 54 56 55 56 57
37 39 38 37 40 42 42 41 41 46 52 53 59 59 58 58 58 60 59 59 60 60 59 58 56 54 53 52 52 53 51 49 49 51 52 53 53 52 52 53 54 56 57 58
34 37 34 34 36 37 38 41 43 46 45 49 51 54 54 54 53 52 55 56 57 58 56 53 52 52 51 52 52 51 51 51 52 52 51 52 52 52 54 55 56 56 58 60
30 33 33 33 34 36 33 34 38 43 43 44 48 50 49 48 52 54 53 55 54 52 51 52 53 53 52 52 52 53 53 52 52 51 50 51 53 55 56 58 60 62 64 65
32 34 33 33 33 33 35 33 33 34 38 39 42 38 41 43 44 46 49 47 46 47 47 48 50 52 53 54 53 52 53 53 52 52 53 54 56 58 60 62 64 66 67 66
36 36 35 36 36 37 35 33 33 36 36 37 38 39 40 40 43 46 42 43 45 47 48 49 49 49 49 50 51 53 54 54 55 56 57 59 61 62 64 65 67 68 67 67
38 37 37 35 33 34 35 35 35 35 36 36 37 35 39 44 47 43 43 48 48 48 48 48 48 50 52 53 54 55 56 57 58 60 62 64 65 66 68 69 70 71 67 55
40 36 35 35 35 35 32 34 35 39 41 34 40 42 43 45 47 42 44 48 50 49 49 50 53 54 54 56 58 59 61 62 63 65 66 67 68 69 71 71 69 60 53 47
37 36 35 32 32 32 31 32 35 38 29 34 38 39 41 44 45 48 48 48 48 51 53 53 51 52 55 59 61 63 65 65 66 67 68 68 68 68 69 64 52 42 41 38
38 36 36 38 38 39 38 36 39 36 40 42 46 48 51 53 55 55 54 53 54 57 60 60 60 58 60 63 66 67 68 68 68 68 67 66 63 59 52 45 39 36 39 40
42 41 41 44 43 42 46 48 46 46 48 50 52 57 60 63 64 63 60 61 68 73 68 67 72 74 73 73 73 71 70 70 67 64 60 51 43 36 34 33 32 36 37 43
43 44 46 47 48 48 48 52 53 54 53 56 58 63 67 68 71 70 72 76 77 78 82 82 79 80 84 85 80 72 64 61 57 50 37 30 30 33 32 33 34 35 36 31
46 47 50 53 52 51 50 51 52 55 60 64 65 68 69 71 72 75 76 80 83 86 91 91 87 87 86 79 66 55 50 45 37 25 28 31 27 25 23 25 26 30 30 33
49 46 48 48 47 51 52 54 58 63 64 64 68 71 70 75 78 78 85 87 89 90 86 77 70 63 56 48 41 39 32 25 23 26 25 22 24 25 26 29 29 29 31 32
Wind_Direction
242 245 248 246 251 251 247 250 251 258 261 255 256 257 250 249 251 249 251 255 257 260 261 261 260 261 264 268 272 274 275 279 287 294 293 294 297 301 303 303 300 297 293 291
242 247 246 251 246 254 261 260 258 255 257 255 254 257 254 248 246 243 242 246 251 256 258 259 260 262 264 269 274 275 279 282 290 295 298 296 297 299 300 300 299 298 294 291
242 244 245 246 251 254 255 262 259 255 250 252 250 251 253 249 247 241 241 244 250 254 254 255 258 262 266 269 273 277 278 286 292 294 294 294 297 299 298 298 297 295 292 290
238 239 239 242 247 255 262 261 260 259 256 250 250 249 249 252 249 244 240 241 246 250 252 256 259 262 266 270 273 277 280 289 294 293 291 294 298 297 296 295 294 292 291 290
236 237 239 242 249 256 257 259 257 256 256 254 251 254 243 251 249 247 244 242 244 249 253 255 259 261 264 267 269 275 282 288 291 292 292 296 297 296 295 294 292 290 289 289
235 235 237 241 247 250 253 257 257 258 259 256 252 253 255 248 252 251 248 247 246 247 250 253 257 261 263 266 270 275 277 282 289 290 291 293 294 291 291 291 290 289 288 287
239 239 238 238 242 245 250 253 257 257 259 261 257 251 256 255 249 249 250 250 250 250 252 254 257 260 262 265 270 272 276 281 285 287 289 290 288 288 288 289 289 288 287 286
240 244 245 246 250 251 251 249 249 251 255 260 257 255 251 257 256 251 250 250 250 252 253 254 256 259 262 263 267 273 278 282 284 287 286 286 286 287 287 288 287 286 285 285
243 245 247 245 244 245 246 247 249 252 257 258 260 258 254 258 260 256 253 254 253 253 253 257 258 260 263 267 272 276 281 281 283 283 285 287 287 287 287 286 285 286 286 286
243 242 245 242 242 243 244 244 247 249 252 255 258 261 261 256 259 260 257 253 253 255 259 262 265 268 271 273 275 277 280 280 282 283 284 285 287 286 285 286 286 287 287 287
242 246 246 244 246 245 245 247 250 250 251 254 257 258 261 260 258 261 261 261 260 260 263 266 270 273 275 278 278 279 280 282 283 284 284 285 284 285 286 286 286 286 286 286
241 247 248 249 246 246 245 245 247 246 244 248 256 258 260 262 260 259 262 264 263 264 268 273 276 277 277 278 277 278 281 282 283 284 284 284 285 286 287 287 287 287 287 289
239 241 247 247 247 242 242 241 244 249 249 248 253 256 257 260 262 263 264 266 270 274 276 276 276 274 274 277 278 280 281 282 283 284 284 285 285 285 285 286 288 289 290 291
239 238 240 243 248 249 249 249 250 250 249 249 250 255 258 262 264 265 269 271 272 272 273 275 277 280 281 281 281 281 281 281 283 283 284 286 287 288 289 288 288 289 289 291
239 244 242 243 246 250 248 247 245 246 249 251 252 251 254 258 262 265 265 267 269 271 274 277 278 278 278 278 279 280 283 285 285 286 287 288 288 287 287 288 288 288 289 290
238 241 243 244 243 245 248 252 252 251 250 251 255 256 257 257 256 260 265 266 270 273 275 275 277 279 279 279 281 281 282 282 283 285 286 286 286 287 288 289 290 291 290 290
244 242 242 243 245 248 245 249 255 259 260 259 259 264 263 262 263 263 265 270 271 272 274 275 277 278 280 281 282 283 284 285 286 286 286 287 287 288 288 288 289 288 288 289
249 244 241 243 243 246 252 254 255 255 257 261 264 263 265 269 269 269 272 271 272 274 275 276 278 280 282 284 285 287 287 288 288 288 287 288 287 287 287 287 286 287 288 289
244 244 248 249 254 256 255 260 265 264 258 259 262 270 269 267 267 272 278 276 278 278 278 280 282 285 287 287 287 286 287 287 287 287 287 286 287 287 287 287 288 289 290 291
248 251 250 254 255 261 264 263 265 265 265 276 270 269 274 276 275 280 276 277 278 280 282 284 285 285 286 287 288 288 288 287 286 286 287 288 289 288 288 288 290 292 290 287
252 254 256 257 258 257 266 267 265 270 287 270 276 277 277 279 280 278 280 282 282 281 280 280 283 287 290 289 288 286 286 286 286 286 287 288 289 289 290 292 291 289 288 287
254 254 255 258 263 265 275 275 275 276 280 281 278 279 280 281 282 281 281 282 285 290 289 287 285 287 290 289 288 287 286 286 286 287 288 289 291 291 290 287 278 279 288 291
250 258 263 264 268 271 275 281 280 278 278 280 282 282 282 282 281 280 282 289 292 297 298 296 290 284 285 289 292 290 286 285 286 288 290 292 287 287 285 284 286 283 284 289
249 257 262 266 270 276 277 274 274 280 282 282 283 285 284 285 288 289 289 290 291 293 293 293 286 288 291 291 293 288 282 283 285 289 286 278 280 285 283 281 287 286 285 288
254 257 264 266 271 269 269 273 274 275 275 279 279 280 280 280 279 282 285 287 287 286 287 288 287 287 287 287 285 277 278 280 280 271 272 275 273 275 281 275 280 294 296 292
255 260 263 267 265 261 262 264 265 266 268 270 275 277 283 286 289 289 287 285 284 286 286 284 283 276 271 270 266 268 270 264 263 265 267 259 271 270 279 287 290 293 299 302